Home   Weather   Røyken   Past weeks

Flag for Norway Past Weather in Røyken, Norway — Yesterday and Last 2 Weeks

Now
48 °F

Partly cloudy.


Feels Like: 42 °F
Forecast: 20 / 28 °F
Wind: 15 mph from Southwest

Location: Statfjord B

Current Time: Dec 11, 2016 at 3:15:54 am

Latest Report: Dec 11, 2016 at 2:50 am


Visibility: N/A

Pressure: 29.65 "Hg

Humidity: 87%

Dew Point: 45 °F

Location of RøykenLocation

Past Weather in Røyken — Graph

°F

Røyken Temperature Yesterday

Maximum temperature yesterday: 52 °F (at 12:20 am)
Minimum temperature yesterday: 46 °F (at 3:20 pm)
Average temperature yesterday: 49 °F

High & Low Weather Summary for the Past Weeks

 TemperatureHumidityPressure
High52 °F (Dec 7, 9:50 pm)100% (Nov 29, 9:50 am)30.51 "Hg (Nov 29, 9:50 am)
Low39 °F (Dec 1, 6:20 pm)42% (Nov 27, 6:50 am)29.36 "Hg (Dec 7, 11:50 pm)
Average46 °F78%30.03 "Hg
* Reported Nov 26 1:20 am — Dec 11 1:50 am, Røyken, Weather by CustomWeather, © 2016

Note: Actual official high and low records may vary slightly from our data, if they occured in-between our weather recording intervals... More about our weather records

Advertising

Røyken Weather History for the Previous 24 Hours

Scroll right to see more
 ConditionsComfort  
Time TempWeatherWind HumidityBarometerVisibility
1:50 am
Sun, Dec 11
48 °FPassing clouds.18 mph82%29.65 "HgN/A
1:20 am48 °FPassing clouds.18 mph82%29.65 "HgN/A
12:50 am46 °FPassing clouds.9 mph87%29.65 "HgN/A
12:20 am48 °FPassing clouds.10 mph82%29.65 "HgN/A
11:50 pm
Sat, Dec 10
48 °FPartly cloudy.23 mph82%29.65 "HgN/A
11:20 pm48 °FPassing clouds.18 mph82%29.65 "HgN/A
10:50 pm46 °FPartly cloudy.21 mph87%29.65 "HgN/A
10:20 pm48 °FPassing clouds.23 mph87%29.65 "HgN/A
9:50 pm48 °FCool.24 mph76%29.65 "HgN/A
9:20 pm48 °FPassing clouds.25 mph87%29.65 "HgN/A
8:50 pm48 °FPassing clouds.28 mph87%29.65 "HgN/A
8:20 pm48 °FSprinkles. Passing clouds.30 mph82%29.65 "HgN/A
7:50 pm48 °FPassing clouds.21 mph87%29.68 "HgN/A
7:20 pm48 °FPartly cloudy.23 mph82%29.68 "HgN/A
6:50 pm48 °FPassing clouds.30 mph87%29.68 "HgN/A
6:20 pm48 °FPassing clouds.29 mph87%29.68 "HgN/A
5:50 pm48 °FPassing clouds.28 mph87%29.68 "HgN/A
5:20 pm48 °FPartly cloudy.26 mph87%29.68 "HgN/A
4:50 pm48 °FPassing clouds.29 mph87%29.68 "HgN/A
4:20 pm48 °FPartly cloudy.25 mph87%29.68 "HgN/A
3:50 pm46 °FSprinkles. Passing clouds.18 mph93%29.68 "HgN/A
3:20 pm46 °FLight rain. Passing clouds.21 mph93%29.68 "Hg4 mi
2:50 pm48 °FPartly sunny.26 mph87%29.68 "HgN/A
2:20 pm48 °FPartly sunny.23 mph87%29.68 "HgN/A
1:50 pm48 °FBroken clouds.24 mph87%29.68 "HgN/A
1:20 pm48 °FPartly sunny.25 mph87%29.68 "HgN/A
12:50 pm48 °FPartly sunny.26 mph87%29.68 "HgN/A
12:20 pm48 °FPartly sunny.22 mph87%29.68 "HgN/A
11:50 am48 °FLight rain. Fog.26 mph87%29.68 "Hg3 mi
11:20 am48 °FCool.26 mph87%29.68 "HgN/A
10:50 am48 °FCool.29 mph87%29.68 "HgN/A
10:20 am48 °FScattered clouds.26 mph87%29.68 "HgN/A
9:50 am50 °FPartly sunny.30 mph76%29.65 "HgN/A
9:20 am48 °FBroken clouds.29 mph82%29.65 "HgN/A
8:50 am50 °FPassing clouds.28 mph88%29.65 "HgN/A
8:20 am48 °FPassing clouds.23 mph87%29.65 "HgN/A
7:50 am48 °FPassing clouds.22 mph87%29.65 "HgN/A
7:20 am48 °FSprinkles. Passing clouds.26 mph87%29.65 "HgN/A
6:50 am50 °FRain showers. Partly cloudy.31 mph82%29.62 "Hg2 mi
6:20 am50 °FPartly cloudy.35 mph82%29.62 "HgN/A
5:50 am50 °FPassing clouds.30 mph88%29.62 "HgN/A
5:20 am50 °FPassing clouds.29 mph88%29.65 "HgN/A
4:50 am50 °FPassing clouds.28 mph88%29.65 "HgN/A
4:20 am50 °FPassing clouds.28 mph88%29.65 "HgN/A
3:50 am50 °FPassing clouds.29 mph94%29.65 "HgN/A
3:20 am50 °FPassing clouds.30 mph94%29.65 "HgN/A
Weather by CustomWeather, © 2016

See weather overviewHow to use our weather pages